Time,TemperatureF,DewpointF,PressureIn,WindDirection,WindDirectionDegrees,WindSpeedMPH,WindSpeedGustMPH,Humidity,HourlyPrecipIn,Conditions,Clouds,dailyrainin,SoftwareType,DateUTC
2013-08-17 07:20:00,51.8,51.5,30.26,West,270,1.1,-999.0,99,-99.99,,,0.01,Acu-Link.com,2013-08-17 11:20:00,
2013-08-17 07:45:00,52.5,52.2,30.25,East,90,1.7,-999.0,99,-99.99,,,0.01,Acu-Link.com,2013-08-17 11:45:00,
2013-08-17 08:05:00,52.9,52.1,30.26,West,270,1.1,-999.0,97,-99.99,,,0.01,Acu-Link.com,2013-08-17 12:05:00,
2013-08-17 08:20:00,54.5,53.1,30.26,SSW,202,0.0,-999.0,95,-99.99,,,0.01,Acu-Link.com,2013-08-17 12:20:00,
2013-08-17 08:36:00,55.4,53.4,30.26,SSE,157,1.7,-999.0,93,-99.99,,,0.01,Acu-Link.com,2013-08-17 12:36:00,
2013-08-17 08:52:00,56.1,54.1,30.25,NW,315,0.0,-999.0,93,-99.99,,,0.01,Acu-Link.com,2013-08-17 12:52:00,
2013-08-17 09:07:00,55.0,53.6,30.26,West,270,2.7,-999.0,95,-99.99,,,0.01,Acu-Link.com,2013-08-17 13:07:00,
2013-08-17 09:24:00,57.6,55.6,30.26,WSW,247,1.1,-999.0,93,-99.99,,,0.01,Acu-Link.com,2013-08-17 13:24:00,
2013-08-17 09:39:00,58.8,56.2,30.26,West,270,4.2,-999.0,91,-99.99,,,0.01,Acu-Link.com,2013-08-17 13:39:00,
2013-08-17 09:54:00,59.5,55.9,30.26,West,270,2.7,-999.0,88,-99.99,,,0.01,Acu-Link.com,2013-08-17 13:54:00,
2013-08-17 10:10:00,61.3,54.4,30.25,SSW,202,2.2,-999.0,78,-99.99,,,0.01,Acu-Link.com,2013-08-17 14:10:00,
2013-08-17 10:26:00,61.5,52.8,30.25,WSW,247,5.8,-999.0,73,-99.99,,,0.01,Acu-Link.com,2013-08-17 14:26:00,
2013-08-17 10:41:00,62.8,54.0,30.26,North,0,1.1,-999.0,73,-99.99,,,0.01,Acu-Link.com,2013-08-17 14:41:00,
2013-08-17 10:56:00,63.0,50.6,30.25,WSW,247,8.3,-999.0,64,-99.99,,,0.01,Acu-Link.com,2013-08-17 14:56:00,
2013-08-17 11:11:00,63.9,50.2,30.24,West,270,8.9,-999.0,61,-99.99,,,0.01,Acu-Link.com,2013-08-17 15:11:00,
2013-08-17 11:28:00,65.3,49.2,30.24,WSW,247,10.4,-999.0,56,-99.99,,,0.01,Acu-Link.com,2013-08-17 15:28:00,
2013-08-17 11:43:00,66.0,50.3,30.24,SSW,202,11.9,-999.0,57,-99.99,,,0.01,Acu-Link.com,2013-08-17 15:43:00,
2013-08-17 11:58:00,64.8,50.6,30.23,West,270,6.3,-999.0,60,-99.99,,,0.01,Acu-Link.com,2013-08-17 15:58:00,
2013-08-17 12:13:00,65.8,50.6,30.24,WSW,247,5.3,-999.0,58,-99.99,,,0.01,Acu-Link.com,2013-08-17 16:13:00,
2013-08-17 12:29:00,66.0,48.9,30.24,SSW,202,6.3,-999.0,54,-99.99,,,0.01,Acu-Link.com,2013-08-17 16:29:00,
2013-08-17 12:44:00,66.2,48.0,30.23,West,270,9.4,-999.0,52,-99.99,,,0.01,Acu-Link.com,2013-08-17 16:44:00,
2013-08-17 12:59:00,66.0,47.9,30.23,West,270,7.8,-999.0,52,-99.99,,,0.01,Acu-Link.com,2013-08-17 16:59:00,
2013-08-17 13:14:00,66.7,49.0,30.23,NW,315,6.8,-999.0,53,-99.99,,,0.01,Acu-Link.com,2013-08-17 17:14:00,
2013-08-17 13:30:00,66.2,48.6,30.24,NNW,337,3.7,-999.0,53,-99.99,,,0.01,Acu-Link.com,2013-08-17 17:30:00,
2013-08-17 13:45:00,67.8,49.5,30.24,NNE,22,5.3,-999.0,52,-99.99,,,0.01,Acu-Link.com,2013-08-17 17:45:00,
2013-08-17 14:02:00,67.6,48.8,30.23,West,270,5.3,-999.0,51,-99.99,,,0.01,Acu-Link.com,2013-08-17 18:02:00,
2013-08-17 14:18:00,68.7,50.4,30.22,WSW,247,1.7,-999.0,52,-99.99,,,0.01,Acu-Link.com,2013-08-17 18:18:00,
2013-08-17 14:35:00,69.1,49.7,30.22,SW,225,3.2,-999.0,50,-99.99,,,0.01,Acu-Link.com,2013-08-17 18:35:00,
2013-08-17 14:50:00,69.3,50.4,30.23,NW,315,4.2,-999.0,51,-99.99,,,0.01,Acu-Link.com,2013-08-17 18:50:00,
2013-08-17 15:05:00,66.9,50.2,30.23,West,270,3.7,-999.0,55,-99.99,,,0.01,Acu-Link.com,2013-08-17 19:05:00,
2013-08-17 15:21:00,68.5,48.0,30.24,SW,225,6.8,-999.0,48,-99.99,,,0.01,Acu-Link.com,2013-08-17 19:21:00,
2013-08-17 15:36:00,69.6,49.0,30.22,SW,225,10.9,-999.0,48,-99.99,,,0.01,Acu-Link.com,2013-08-17 19:36:00,
2013-08-17 15:51:00,68.7,48.8,30.23,West,270,6.3,-999.0,49,-99.99,,,0.01,Acu-Link.com,2013-08-17 19:51:00,
2013-08-17 16:06:00,70.5,48.7,30.23,NNW,337,6.8,-999.0,46,-99.99,,,0.01,Acu-Link.com,2013-08-17 20:06:00,
2013-08-17 16:21:00,72.5,48.1,30.21,West,270,4.2,-999.0,42,-99.99,,,0.01,Acu-Link.com,2013-08-17 20:21:00,
2013-08-17 16:37:00,73.9,48.7,30.21,WNW,292,4.2,-999.0,41,-99.99,,,0.01,Acu-Link.com,2013-08-17 20:37:00,
2013-08-17 16:52:00,72.5,46.8,30.22,WSW,247,6.3,-999.0,40,-99.99,,,0.01,Acu-Link.com,2013-08-17 20:52:00,
2013-08-17 17:07:00,71.2,46.9,30.21,SW,225,6.8,-999.0,42,-99.99,,,0.01,Acu-Link.com,2013-08-17 21:07:00,
2013-08-17 17:22:00,72.7,47.0,30.20,SW,225,4.2,-999.0,40,-99.99,,,0.01,Acu-Link.com,2013-08-17 21:22:00,
2013-08-17 17:37:00,72.3,47.9,30.20,West,270,3.7,-999.0,42,-99.99,,,0.01,Acu-Link.com,2013-08-17 21:37:00,
2013-08-17 17:53:00,72.3,47.9,30.19,NNE,22,3.7,-999.0,42,-99.99,,,0.01,Acu-Link.com,2013-08-17 21:53:00,
2013-08-17 18:08:00,71.2,49.3,30.18,NNW,337,3.7,-999.0,46,-99.99,,,0.01,Acu-Link.com,2013-08-17 22:08:00,
2013-08-17 18:23:00,71.2,48.8,30.16,NNE,22,2.2,-999.0,45,-99.99,,,0.01,Acu-Link.com,2013-08-17 22:23:00,
2013-08-17 18:38:00,69.4,47.1,30.17,WNW,292,3.2,-999.0,45,-99.99,,,0.01,Acu-Link.com,2013-08-17 22:38:00,
2013-08-17 18:53:00,66.0,48.4,30.17,SW,225,0.0,-999.0,53,-99.99,,,0.01,Acu-Link.com,2013-08-17 22:53:00,
2013-08-17 19:09:00,65.1,50.0,30.17,East,90,0.0,-999.0,58,-99.99,,,0.01,Acu-Link.com,2013-08-17 23:09:00,
2013-08-17 19:24:00,62.1,49.8,30.19,East,90,0.0,-999.0,64,-99.99,,,0.01,Acu-Link.com,2013-08-17 23:24:00,
2013-08-17 19:39:00,59.5,48.9,30.21,NE,45,1.1,-999.0,68,-99.99,,,0.01,Acu-Link.com,2013-08-17 23:39:00,
2013-08-17 19:55:00,57.6,48.3,30.20,NE,45,1.1,-999.0,71,-99.99,,,0.01,Acu-Link.com,2013-08-17 23:55:00,
2013-08-17 20:10:00,55.9,48.1,30.22,East,90,2.2,-999.0,75,-99.99,,,0.01,Acu-Link.com,2013-08-18 00:10:00,
2013-08-17 20:25:00,54.7,47.6,30.23,ESE,112,0.0,-999.0,77,-99.99,,,0.01,Acu-Link.com,2013-08-18 00:25:00,
2013-08-17 20:40:00,53.4,46.7,30.22,NNW,337,0.0,-999.0,78,-99.99,,,0.01,Acu-Link.com,2013-08-18 00:40:00,
2013-08-17 20:55:00,52.2,46.2,30.23,NNE,22,1.7,-999.0,80,-99.99,,,0.01,Acu-Link.com,2013-08-18 00:55:00,
2013-08-17 21:11:00,51.3,46.0,30.23,NNE,22,0.0,-999.0,82,-99.99,,,0.01,Acu-Link.com,2013-08-18 01:11:00,
2013-08-17 21:26:00,50.5,45.5,30.24,West,270,0.0,-999.0,83,-99.99,,,0.01,Acu-Link.com,2013-08-18 01:26:00,
2013-08-17 21:41:00,50.0,45.4,30.23,WNW,292,0.0,-999.0,84,-99.99,,,0.01,Acu-Link.com,2013-08-18 01:41:00,
2013-08-17 21:57:00,49.1,45.1,30.23,NNW,337,0.0,-999.0,86,-99.99,,,0.01,Acu-Link.com,2013-08-18 01:57:00,
2013-08-17 22:12:00,48.6,44.6,30.23,North,0,0.0,-999.0,86,-99.99,,,0.01,Acu-Link.com,2013-08-18 02:12:00,
2013-08-17 22:27:00,48.2,44.5,30.23,NNW,337,0.0,-999.0,87,-99.99,,,0.01,Acu-Link.com,2013-08-18 02:27:00,
2013-08-17 22:42:00,48.0,44.9,30.25,NNE,22,0.0,-999.0,89,-99.99,,,0.01,Acu-Link.com,2013-08-18 02:42:00,
2013-08-17 22:57:00,47.8,45.0,30.24,NE,45,0.0,-999.0,90,-99.99,,,0.01,Acu-Link.com,2013-08-18 02:57:00,
2013-08-17 23:13:00,46.9,44.1,30.24,WNW,292,0.0,-999.0,90,-99.99,,,0.01,Acu-Link.com,2013-08-18 03:13:00,
2013-08-17 23:28:00,46.6,43.8,30.25,North,0,0.0,-999.0,90,-99.99,,,0.01,Acu-Link.com,2013-08-18 03:28:00,
2013-08-17 23:43:00,46.8,44.6,30.24,NNW,337,0.0,-999.0,92,-99.99,,,0.01,Acu-Link.com,2013-08-18 03:43:00,
2013-08-17 23:58:00,46.0,44.1,30.24,NNE,22,1.7,-999.0,93,-99.99,,,0.01,Acu-Link.com,2013-08-18 03:58:00,